Terug naar catalogus

STARLINK-3906

ActiefCommunicatieVLEO
NORAD 52585·PAYLOAD·🇺🇸 United States

Gelanceerd May 13, 2022 vanaf Vandenberg Space Force Base

Loading…

Volgende Passages (komende 24 uur)

TLE

VersSource: CelesTrak SupGP

Epoch: Sep 15, 2026, 01:28 UTC

1 52585C 22051BB  26258.06159722  .00024325  00000+0  15259-2 0  2587
2 52585  53.1605 348.3283 0001095  92.6773  25.6282 15.08812488    18

Volg STARLINK-3906 in realtime met AllMySat

Download on the App Store